User: anonymous   Login
Location: Unspecified
(0.0000°N, 0.0000°E)
Time: 05:46:32
(UTC+00:00)
Language:

SO-67 - Orbit

View from above orbital plane
View from above orbital plane
View from above satellite
View from above satellite

Ground track
Ground track

The orbit data is extracted from the following two-line orbital elements,

1 35870U 09049F   16178.69451623  .00005236  00000-0  98688-4 0  9993
2 35870  97.1176 193.4307 0001423  66.5434  25.4879 15.48929443378115
Epoch (UTC): 26 June 2016 16:40:06
Eccentricity: 0.0001423
inclination: 97.1176°
perigee height: 419 km
apogee height: 421 km
right ascension of ascending node: 193.4307°
argument of perigee: 66.5434°
revolutions per day: 15.48929443
mean anomaly at epoch: 25.4879°
orbit number at epoch: 37811

The dashed part of the orbit path shows where the satellite is in the earth's shadow,  

DLR